Regional Weather Roundup
Issued by NWS Albany, NY

Home | Current Version | Previous Version | Text Only | Print | Product List | Glossary On
Versions: 1 2 3 4 5 6 7 8 9 10 11 12 13 14 15 16 17 18 19 20 21 22 23 24 25 26 27 28 29 30 31 32 33 34 35 36 37 38 39 40 41 42 43 44 45 46 47 48 49 50
000
ASUS41 KALY 251610
RWRALY

NEW YORK STATE HOURLY WEATHER ROUNDUP
NATIONAL WEATHER SERVICE ALBANY NY
1100 AM EST THU DEC 25 2014

NOTE: "FAIR" INDICATES FEW OR NO CLOUDS BELOW 12,000 FEET WITH NO
SIGNIFICANT WEATHER AND/OR NO OBSTRUCTIONS TO VISIBILITY.

NYZ032-033-038>043-046>054-057>066-NYZ062>081-251700-
EAST


CITY           SKY/WX    TMP DP  RH WIND       PRES   REMARKS
ALBANY         PTSUNNY   51  33  50 W22G35    29.65R
GLENS FALLS    CLOUDY    47  32  56 VRB7      29.61R
POUGHKEEPSIE   PTSUNNY   51  33  50 W18G28    29.70R
NEWBURGH       MOSUNNY   48  36  61 W23G35    29.71R
MONTGOMERY     MOSUNNY   50  31  48 W16G26    29.71R
WHITE PLAINS   PTSUNNY   49  32  52 W20G26    29.71R
ISLIP          CLOUDY    51  38  60 W14       29.69R
NEW YORK CITY  CLOUDY    50  29  44 W24G33    29.75R
CENTRAL PARK   PTSUNNY   50  28  42 W13G26    29.78R
$$

NYZ005>009-017-018-044>046-055-056-251700-
CENTRAL


CITY           SKY/WX    TMP DP  RH WIND       PRES   REMARKS
FULTON         CLOUDY    44  33  65 W14       29.70R
SYRACUSE       CLOUDY    43  34  70 W23G32    29.72R
ROME           CLOUDY    43  33  68 W18G33    29.70R
ELMIRA         CLOUDY    43  33  68 W15G23    29.76R
BINGHAMTON     CLOUDY    39  31  72 W16G25    29.72R WCI  30
MONTICELLO     PTSUNNY   43  32  65 W16G28    29.71R
$$

NYZ026>034-041>043-251700-
NORTH


CITY           SKY/WX    TMP DP  RH WIND       PRES   REMARKS
WATERTOWN      CLOUDY    43  33  68 W22G37    29.64R
FORT DRUM      NOT AVBL
MASSENA        CLOUDY    43  33  68 SW21G32   29.51R
SARANAC LAKE   CLOUDY    36  33  89 SW14G23   29.50R WCI  27
PLATTSBURGH    CLOUDY    46  33  60 VRB5      29.50R
$$

NYZ001>004-010>016-019>021-251700-
WEST


CITY           SKY/WX    TMP DP  RH WIND       PRES   REMARKS
NIAGARA FALLS  CLOUDY    41  33  73 W24G37    29.76R
BUFFALO        CLOUDY    40  34  79 W21G36    29.76R WCI  30
DUNKIRK        CLOUDY    40  35  83 SW25G38   29.83R WCI  29
JAMESTOWN      CLOUDY    36  28  75 W21G29    29.82R WCI  24
WELLSVILLE     FLURRIES  35  32  88 W17G23    29.76R WCI  25
ROCHESTER      CLOUDY    43  33  68 W28G38    29.72R
PENN YAN       CLOUDY    42  33  70 W15G25    29.74R
$$

             KEY
       WCI = WIND CHILL INDEX
       VSB = VISIBILITY
       HX  = HEAT INDEX
$$



USA.gov is the U.S. government's official web portal to all federal, state and local government web resources and services.